Regional Weather Roundup
Issued by NWS

Home | Current Version | Previous Version | Graphics & Text | Print | Product List | Glossary Off
Versions: 1 2 3 4 5 6 7 8 9 10 11 12 13 14 15 16 17 18 19 20 21 22 23 24 25 26 27 28 29 30 31 32 33 34 35 36 37 38 39 40 41 42 43 44 45 46 47 48 49

000
ASUS45 KBOU 161107
RWRCO

WEATHER ROUNDUP FOR COLORADO
NATIONAL WEATHER SERVICE DENVER/BOULDER CO
500 AM MDT TUE SEP 16 2014

NOTE: "FAIR" INDICATES FEW OR NO CLOUDS BELOW 12000 FEET WITH NO
SIGNIFICANT WEATHER AND/OR OBSTRUCTIONS TO VISIBILITY.

COZ001>005-013-030-031-161200-
...NORTHWEST COLORADO...

CITY           SKY/WX    TMP DP  RH WIND       PRES   REMARKS
CRAIG          PTCLDY    42  38  85 CALM      30.30S
HAYDEN         PTCLDY    50  36  57 E12       30.31S
MEEKER         CLEAR     45  38  76 CALM      30.31S
MOUNT WERNER   NOT AVBL
STEAMBOAT SPGS PTCLDY    44  38  80 CALM      30.34S
WALDEN         MOCLDY    36  32  87 SE9       30.39S
$$

COZ006>008-011-161200-
...WEST CENTRAL VALLEYS...

CITY           SKY/WX    TMP DP  RH WIND       PRES   REMARKS
GRAND JUNCTION CLEAR     56  41  57 SE12      30.19R
MONTROSE       MOCLDY    55  41  59 S7        30.28S
EAGLE          CLEAR     43  39  87 CALM      30.38S
RIFLE          CLEAR     49  40  71 SE3       30.27S
DELTA          PTCLDY    60  41  50 NE10      30.25S
NUCLA          NOT AVBL
$$

COZ017>023-064>068-161200-
...SOUTHWEST COLORADO...

CITY           SKY/WX    TMP DP  RH WIND       PRES   REMARKS
DURANGO        CLEAR     51  42  71 NE3       30.36S
CORTEZ         CLEAR     54  46  74 E7        30.30S
PAGOSA SPRINGS CLEAR     49  39  67 CALM      30.43F
TELLURIDE      NOT AVBL
WOLF CREEK PAS CLEAR     37  37 100 SW9       30.67F
$$

COZ009-010-012-014-032>034-037-058>063-161200-
...CENTRAL COLORADO...

CITY           SKY/WX    TMP DP  RH WIND       PRES   REMARKS
ASPEN          CLEAR     46  35  65 SW6       30.40S
BUENA VISTA    CLEAR     45  37  73 NW5       30.44S
COPPER MTN     CLEAR     46  27  46 W13       30.66S
BERTHOUD PASS  FAIR      37  36  93 NW22      30.67S
COTTONWOOD PAS CLEAR     52  32  46 W7        30.53F
GUNNISON       PTCLDY    43  34  70 CALM      30.45S
KREMMLING      CLEAR     36  34  93 CALM      30.42S
LEADVILLE      CLEAR     34  33  96 CALM      30.53S
MONARCH PASS   PTCLDY    43  32  65 SW14      30.76F
SALIDA         CLEAR     51  41  69 NW9       30.48S
SUNLIGHT       CLEAR     54  30  40 W3        30.59F
WILKERSON PASS NOT AVBL
$$

COZ069>075-161200-
...SAN LUIS VALLEY/SANGRE DE CRISTO MOUNTAINS...

CITY           SKY/WX    TMP DP  RH WIND       PRES   REMARKS
ALAMOSA        PTCLDY    42  39  89 SW6       30.41S
LA VETA PASS   NOT AVBL
SAGUACHE       NOT AVBL
$$

COZ035-036-038>040-161200-
...NORTHERN COLORADO FRONT RANGE...

CITY           SKY/WX    TMP DP  RH WIND       PRES   REMARKS
DENVER INTL AP CLEAR     53  47  79 SW13      30.18F
DMNS CITY PARK   N/A     51  48  90 SW3       30.18S
AURORA         CLEAR     53  45  73 S9        30.20F
FRONT RANGE AP CLEAR     59  46  63 SW10      30.19S
ERIE MUNI ARPT CLEAR     46  45  94 CALM      30.17F
BOULDER MUN AP CLEAR     52  46  82 CALM      30.17F
CENTENNIAL     CLEAR     56  44  64 SW10      30.21F
BROOMFIELD     CLEAR     55  45  67 W5        30.20S
FORT COLLINS   CLEAR     50  46  87 S3        30.18S
LONGMONT       CLEAR     47  44  89 CALM      30.19S
$$

COZ041-046-047-076>085-087-088-161200-
...PIKES PEAK/PALMER DIVIDE AND SOUTHERN FOOTHILLS...

CITY           SKY/WX    TMP DP  RH WIND       PRES   REMARKS
COLO. SPRINGS  CLOUDY    53  50  89 CALM      30.30F
A. F. ACADEMY  CLOUDY    51  49  95 SE3       30.30F
ELLICOTT       NOT AVBL
FALCON         FOG       49  49  99 SW7       30.32S VSB 1/4
FORT CARSON    CLOUDY    52  52 100 E2        30.28S
LIMON          CLOUDY    53  51  93 S16       30.25S
MONUMENT HILL  CLEAR     50  43  76 SW8       30.29S
TRINIDAD       CLEAR     52  49  89 SW10      30.27F
$$

COZ042>045-048>051-090-091-161200-
...NORTHEAST COLORADO...

CITY           SKY/WX    TMP DP  RH WIND       PRES   REMARKS
GREELEY ARPT   CLEAR     45  37  76 NW3       30.16F
AKRON          CLEAR     53  50  89 SW15      30.13F
BURLINGTON     CLOUDY    58  52  80 S15G25    30.19F
WRAY           PTCLDY    54  52  92 S12G18    30.15F
STERLING       CLEAR     50  50 100 S5        30.11F FOG
HOLYOKE        PTCLDY    54  50  87 S10       30.14F
FORT MORGAN    CLEAR     47  46  95 W7        30.15S FOG
$$

COZ086-089-092>099-161200-
...SOUTHEAST COLORADO...

CITY           SKY/WX    TMP DP  RH WIND       PRES   REMARKS
PUEBLO         FOG       52  52 100 NW5       30.23F VSB 1/4
LA JUNTA       CLEAR     55  50  83 SE3       30.22F
LAMAR          CLOUDY    59  53  80 S6        30.20F
SPRINGFIELD      N/A     54  53  97 SE6       30.24F
$$



USA.gov is the U.S. government's official web portal to all federal, state and local government web resources and services.